• In Czech Republic
  • List of Countries
  • For 7 days
  • Water Temperature
  • Satellite Maps
  • Weather Map
  • Weather Widgets
  • user-avatar
    Login

    Hourly Weather Malanje

    Today, 18 February, Sunday

    Time Temperature Precipitation Wind Pressure Humidity
    00:00 +19°C° 0.6 mm 2 mps 664 mmHg 98%
    01:00 +19°C° 0 mm 2 mps 664 mmHg 98%
    02:00 +20°C° 0.5 mm 1 mps 664 mmHg 98%
    03:00 +20°C° 0.5 mm 1 mps 664 mmHg 98%
    04:00 +20°C° 0.5 mm 1 mps 663 mmHg 98%
    05:00 +20°C° 0.3 mm 1 mps 664 mmHg 97%
    06:00 +20°C° 0.3 mm 1 mps 664 mmHg 97%
    07:00 +20°C° 0.3 mm 1 mps 664 mmHg 97%
    08:00 +22°C° 0.3 mm 1 mps 665 mmHg 93%
    09:00 +23°C° 0.3 mm 1 mps 665 mmHg 90%
    10:00 +24°C° 0.3 mm 1 mps 666 mmHg 86%
    11:00 +25°C° 0.3 mm 1 mps 665 mmHg 80%
    12:00 +26°C° 0.3 mm 2 mps 665 mmHg 74%
    13:00 +27°C° 0.3 mm 2 mps 664 mmHg 68%
    14:00 +27°C° 0.5 mm 2 mps 664 mmHg 72%
    15:00 +27°C° 0.5 mm 2 mps 663 mmHg 76%
    16:00 +26°C° 0.5 mm 2 mps 663 mmHg 79%
    17:00 +25°C° 1 mm 1 mps 663 mmHg 84%
    18:00 +23°C° 1 mm 1 mps 663 mmHg 88%
    19:00 +22°C° 1 mm 1 mps 663 mmHg 93%
    20:00 +21°C° 0.5 mm 1 mps 663 mmHg 94%
    21:00 +21°C° 0.5 mm 1 mps 664 mmHg 95%
    22:00 +21°C° 0.5 mm 1 mps 664 mmHg 96%
    23:00 +21°C° 0.1 mm 1 mps 664 mmHg 97%

    Tomorrow, 19 February, Monday

    Time Temperature Precipitation Wind Pressure Humidity
    00:00 +20°C° 0.1 mm 1 mps 664 mmHg 97%
    01:00 +20°C° 0.1 mm 1 mps 664 mmHg 98%
    02:00 +20°C° 0 mm 1 mps 663 mmHg 98%
    03:00 +20°C° 0 mm 1 mps 663 mmHg 98%
    04:00 +20°C° 0 mm 1 mps 663 mmHg 98%
    05:00 +20°C° 0.1 mm 1 mps 663 mmHg 98%
    06:00 +20°C° 0.1 mm 1 mps 664 mmHg 98%
    07:00 +18°C° 0.1 mm 0 mps 664 mmHg 97%
    08:00 +21°C° 0.3 mm 1 mps 665 mmHg 96%
    09:00 +22°C° 0.3 mm 1 mps 665 mmHg 94%
    10:00 +23°C° 0.3 mm 1 mps 665 mmHg 92%
    11:00 +24°C° 0.4 mm 1 mps 665 mmHg 86%
    12:00 +25°C° 0.4 mm 1 mps 664 mmHg 80%
    13:00 +27°C° 0.4 mm 2 mps 664 mmHg 75%
    14:00 +26°C° 0.4 mm 2 mps 663 mmHg 76%
    15:00 +26°C° 0.4 mm 2 mps 663 mmHg 77%
    16:00 +26°C° 0.4 mm 2 mps 662 mmHg 78%
    17:00 +25°C° 0.7 mm 2 mps 663 mmHg 84%
    18:00 +23°C° 0.7 mm 2 mps 663 mmHg 90%
    19:00 +21°C° 0.7 mm 2 mps 663 mmHg 96%
    20:00 +21°C° 1.3 mm 2 mps 664 mmHg 97%
    21:00 +20°C° 1.3 mm 2 mps 664 mmHg 97%
    22:00 +20°C° 1.3 mm 2 mps 665 mmHg 98%
    23:00 +20°C° 0.7 mm 2 mps 665 mmHg 98%

    Day after tomorrow, 20 February, Tuesday

    Time Temperature Precipitation Wind Pressure Humidity
    00:00 +20°C° 0.7 mm 2 mps 664 mmHg 98%
    01:00 +19°C° 0.7 mm 2 mps 664 mmHg 98%
    02:00 +19°C° 0.5 mm 2 mps 664 mmHg 98%
    03:00 +19°C° 0.5 mm 2 mps 663 mmHg 98%
    04:00 +19°C° 0.5 mm 2 mps 663 mmHg 98%
    05:00 +19°C° 0.3 mm 2 mps 664 mmHg 98%
    06:00 +19°C° 0.3 mm 2 mps 664 mmHg 98%
    07:00 +19°C° 0.3 mm 2 mps 665 mmHg 98%
    08:00 +20°C° 0.1 mm 2 mps 665 mmHg 95%
    09:00 +20°C° 0.1 mm 2 mps 665 mmHg 93%
    10:00 +21°C° 0.1 mm 2 mps 665 mmHg 91%
    11:00 +23°C° 0.1 mm 2 mps 665 mmHg 86%
    12:00 +24°C° 0.1 mm 2 mps 664 mmHg 82%
    13:00 +25°C° 0.1 mm 3 mps 664 mmHg 78%
    14:00 +24°C° 0.6 mm 3 mps 663 mmHg 82%
    15:00 +24°C° 0.6 mm 2 mps 663 mmHg 86%
    16:00 +23°C° 0.6 mm 2 mps 662 mmHg 90%
    17:00 +23°C° 0.3 mm 2 mps 662 mmHg 93%
    18:00 +21°C° 0.3 mm 2 mps 663 mmHg 95%
    19:00 +20°C° 0.3 mm 2 mps 663 mmHg 97%
    20:00 +20°C° 0.1 mm 2 mps 664 mmHg 98%
    21:00 +19°C° 0.1 mm 2 mps 665 mmHg 98%
    22:00 +19°C° 0.1 mm 2 mps 665 mmHg 98%
    23:00 +19°C° 0.1 mm 2 mps 665 mmHg 98%

    21 February, Wednesday

    Time Temperature Precipitation Wind Pressure Humidity
    00:00 +19°C° 0.1 mm 2 mps 664 mmHg 98%
    01:00 +18°C° 0.1 mm 2 mps 664 mmHg 98%
    02:00 +18°C° 0 mm 2 mps 664 mmHg 98%
    03:00 +18°C° 0 mm 2 mps 664 mmHg 98%
    04:00 +18°C° 0 mm 2 mps 663 mmHg 98%
    05:00 +18°C° 0 mm 2 mps 664 mmHg 97%
    06:00 +18°C° 0 mm 2 mps 664 mmHg 97%
    07:00 +18°C° 0 mm 2 mps 664 mmHg 97%
    08:00 +19°C° 0.1 mm 2 mps 665 mmHg 93%
    09:00 +20°C° 0.1 mm 2 mps 665 mmHg 89%
    10:00 +21°C° 0.1 mm 3 mps 666 mmHg 86%
    11:00 +22°C° 0.1 mm 3 mps 665 mmHg 81%
    12:00 +23°C° 0.1 mm 4 mps 665 mmHg 76%
    13:00 +25°C° 0.1 mm 4 mps 664 mmHg 72%
    14:00 +25°C° 0.1 mm 4 mps 664 mmHg 73%
    15:00 +25°C° 0.1 mm 4 mps 663 mmHg 74%
    16:00 +25°C° 0.1 mm 4 mps 663 mmHg 75%
    17:00 +24°C° 0 mm 3 mps 663 mmHg 79%
    18:00 +21°C° 0 mm 3 mps 663 mmHg 84%
    19:00 +20°C° 0 mm 2 mps 663 mmHg 88%
    20:00 +20°C° 0 mm 2 mps 664 mmHg 90%
    21:00 +19°C° 0 mm 2 mps 664 mmHg 93%
    22:00 +19°C° 0 mm 2 mps 664 mmHg 95%
    23:00 +18°C° 0 mm 2 mps 664 mmHg 95%

    22 February, Thursday

    Time Temperature Precipitation Wind Pressure Humidity
    00:00 +18°C° 0 mm 2 mps 664 mmHg 94%
    01:00 +18°C° 0 mm 2 mps 663 mmHg 94%
    02:00 +18°C° 0 mm 2 mps 663 mmHg 93%
    03:00 +18°C° 0 mm 2 mps 663 mmHg 91%
    04:00 +19°C° 0 mm 1 mps 662 mmHg 90%
    05:00 +19°C° 0 mm 1 mps 663 mmHg 89%
    06:00 +19°C° 0 mm 1 mps 663 mmHg 88%
    07:00 +20°C° 0 mm 1 mps 664 mmHg 87%
    08:00 +22°C° 0 mm 1 mps 664 mmHg 79%
    09:00 +24°C° 0 mm 1 mps 665 mmHg 71%
    10:00 +26°C° 0 mm 1 mps 665 mmHg 62%
    11:00 +27°C° 0.1 mm 2 mps 665 mmHg 59%
    12:00 +28°C° 0.1 mm 2 mps 664 mmHg 56%
    13:00 +29°C° 0.1 mm 2 mps 664 mmHg 52%
    14:00 +29°C° 0.3 mm 2 mps 664 mmHg 56%
    15:00 +29°C° 0.3 mm 2 mps 663 mmHg 60%
    16:00 +28°C° 0.3 mm 2 mps 663 mmHg 64%
    17:00 +26°C° 0.7 mm 2 mps 663 mmHg 73%
    18:00 +24°C° 0.7 mm 2 mps 663 mmHg 82%
    19:00 +21°C° 0.7 mm 1 mps 663 mmHg 91%
    20:00 +21°C° 0 mm 1 mps 663 mmHg 91%
    21:00 +21°C° 0 mm 1 mps 663 mmHg 92%
    22:00 +21°C° 0 mm 1 mps 664 mmHg 92%
    23:00 +20°C° 0 mm 1 mps 663 mmHg 92%

    23 February, Friday

    Time Temperature Precipitation Wind Pressure Humidity
    00:00 +20°C° 0 mm 1 mps 663 mmHg 93%
    01:00 +18°C° 0 mm 0 mps 663 mmHg 93%
    02:00 +18°C° 0 mm 0 mps 662 mmHg 93%
    03:00 +17°C° 0 mm 0 mps 662 mmHg 93%
    04:00 +17°C° 0 mm 0 mps 662 mmHg 94%
    05:00 +17°C° 0 mm 0 mps 662 mmHg 93%
    06:00 +18°C° 0 mm 0 mps 663 mmHg 92%
    07:00 +18°C° 0 mm 0 mps 663 mmHg 91%
    08:00 +21°C° 0 mm 0 mps 664 mmHg 84%
    09:00 +23°C° 0 mm 0 mps 664 mmHg 76%
    10:00 +25°C° 0 mm 0 mps 665 mmHg 69%
    11:00 +26°C° 0.1 mm 0 mps 665 mmHg 64%
    12:00 +27°C° 0.1 mm 0 mps 664 mmHg 60%
    13:00 +28°C° 0.1 mm 0 mps 664 mmHg 56%
    14:00 +30°C° 0.1 mm 1 mps 663 mmHg 58%
    15:00 +29°C° 0.1 mm 1 mps 663 mmHg 61%
    16:00 +29°C° 0.1 mm 1 mps 662 mmHg 63%
    17:00 +27°C° 0.3 mm 1 mps 662 mmHg 69%
    18:00 +25°C° 0.3 mm 1 mps 662 mmHg 76%
    19:00 +23°C° 0.3 mm 1 mps 662 mmHg 83%
    20:00 +22°C° 0.3 mm 1 mps 663 mmHg 85%
    21:00 +22°C° 0.3 mm 1 mps 663 mmHg 88%
    22:00 +21°C° 0.3 mm 1 mps 664 mmHg 90%
    23:00 +21°C° 0 mm 1 mps 664 mmHg 91%
    Show more